Regional Weather Roundup
Issued by NWS Bismarck, ND

Home | Current Version | Previous Version | Text Only | Print | Product List | Glossary On
Versions: 1 2 3 4 5 6 7 8 9 10 11 12 13 14 15 16 17 18 19 20 21 22 23 24 25 26 27 28 29 30 31 32 33 34 35 36 37 38 39 40 41 42 43 44 45 46 47 48 49 50
000
ASUS43 KBIS 310010
RWRBIS

NWR BROADCAST TEXT
NATIONAL WEATHER SERVICE BISMARCK ND
600 PM CST FRI JAN 30 2015

NOTE: "FAIR" INDICATES FEW OR NO CLOUDS BELOW 12,000 FEET WITH NO
SIGNIFICANT WEATHER AND/OR OBSTRUCTIONS TO VISIBILITY.


CITY           SKY/WX    TMP DP  RH WIND       PRES   REMARKS
WILLISTON      CLEAR     35  26  69 N9        30.19R
MINOT          CLOUDY    27  22  81 NW18      30.18R WCI  14
MINOT AFB      CLOUDY    25  24  99 N16       30.18R WCI  12
BISMARCK       CLEAR     39  28  64 NW12      30.15R
DICKINSON      CLEAR     37  25  61 N9        30.13S
GARRISON         N/A     31  27  85 CALM      30.15R
HETTINGER ARPT CLEAR     37  24  59 N8        30.14S
JAMESTOWN      CLEAR     31  25  78 NW9       30.11R
BEACH          FAIR      32  28  86 N5        30.17S
CARRINGTON     FAIR      28  28 100 MISG      30.14R
CROSBY         CLOUDY    25  25 100 N14       30.22R WCI  13
HARVEY         CLOUDY    25  25 100 NW20      30.16R WCI  11
HAZEN          FAIR      34  27  75 NW8       30.17S
LINTON         FAIR      39  30  70 NW6       30.13R
MANDAN         FAIR      36  27  69 NW6       30.15R
OAKES            N/A     32  32 100 SW7       30.12S
RUGBY          CLOUDY    23  23 100 NW13      30.16R WCI  11
TIOGA          CLOUDY    28  28 100 N12       30.21R WCI  18
WATFORD CITY   FAIR      34  27  75 NW3       30.16S
$$

CITY           SKY/WX    TMP DP  RH WIND       PRES   REMARKS
GRAND FORKS    CLEAR     27  21  78 NW7       30.11R WCI  19
GRAND FORKS AF PTCLDY    28  21  76 N9        30.12R WCI  19
DEVILS LAKE    CLOUDY    27  19  74 NW15      30.13R WCI  15
FARGO          CLEAR     30  24  78 S8        30.12F
CANDO          CLOUDY    25  21  86 N17G26    30.16R WCI  11
CAVALIER       CLOUDY    27  21  80 NW12      30.14R WCI  16
GWINNER        CLEAR     34  32  93 SW7       30.13S
ROLLA          CLOUDY    23  23 100 N24G31    30.14R WCI   7
WALHALLA         N/A     23  23 100 NW17      30.16R WCI   9
$$

CITY           SKY/WX    TMP DP  RH WIND       PRES   REMARKS
ABERDEEN       CLEAR     34  29  82 S3        30.13F
MOBRIDGE       CLEAR     35  26  69 NE3       30.11R
BUFFALO          N/A     40  24  53 N12       30.08S
RAPID CITY     CLEAR     39  24  55 N13       30.12S
GLASGOW        PTCLDY    34  29  82 NE7       30.17F
SIDNEY         CLEAR     34  25  69 CALM      30.20F
WOLF POINT     PTCLDY    39  30  70 CALM      30.19S
GLENDIVE       CLEAR     39  25  56 NW6       30.18S
MILES CITY     CLEAR     42  27  55 CALM      30.15F
BAKER          CLEAR     38  26  62 NW5       30.15F
$$

CITY           SKY/WX    TMP DP  RH WIND       PRES   REMARKS
BILLINGS       PTCLDY    47  19  33 S5        30.13S
GREAT FALLS    CLEAR     41  19  41 S7        30.08F
REGINA         CLOUDY    19  18  93 NW10      30.25R WCI   8
ESTEVAN        CLOUDY    21  19  93 NW15G22   30.20S WCI   8
$$



USA.gov is the U.S. government's official web portal to all federal, state and local government web resources and services.